Location: *
(51.1248°S, 108.4023°W)
Time: 09:48:39
(UTC+00:00)

Tiangong - Pass Details

Date: 26 September 2021
Orbit: 382 x 385 km, 41.5° (Epoch: 17 October)

Event Time Altitude Azimuth Distance (km) Brightness Sun altitude
Rises 01:40:11 0° 311° (NW) 2,289 5.7 -4.5°
Reaches altitude 10° 01:43:02 10° 339° (NNW) 1,436 4.1 -4.9°
Maximum altitude 01:44:44 14° 10° (N) 1,244 3.5 -5.2°
Drops below altitude 10° 01:46:26 10° 42° (NE) 1,439 3.5 -5.5°
Enters shadow 01:47:43 - 58° (ENE) 1,778 3.8 -5.7°
